1483520400.43,58805,9.5,71588.5,-9.03,-11.55,-11.55,0,*5A
1483520401.65,58806,9.5,71590.5,-8.97,-11.45,-11.45,0,*55
1483520402.93,58807,9.5,71592.8,-8.99,-11.51,-11.51,0,*5A
1483520404.21,58808,9.5,71596.5,-8.99,-11.77,-11.67,0,*54
1483520405.45,58809,9.5,71596.3,-8.97,-12.61,-12.43,0,*5A
1483520406.74,58810,9.5,71606.8,-8.99,-12.57,-12.35,0,*58
1483520407.99,58811,9.5,71600.0,-8.99,-12.47,-12.15,0,*5A
1483520409.26,58812,9.5,71580.5,-8.99,-12.29,-11.93,0,*5C
1483520410.51,58813,9.5,71558.3,-8.99,-12.03,-11.81,0,*56
1483520411.78,58814,9.5,71546.3,-8.99,-12.15,-12.03,0,*5F
1483520413.01,58815,9.5,71542.0,-8.99,-12.43,-12.43,0,*59
1483520414.3,58816,9.5,71556.8,-8.99,-12.57,-12.35,0,*5E
1483520415.58,58817,9.5,71542.5,-9.03,-12.61,-12.65,0,*5D
1483520416.87,58818,9.5,71530.8,-9.03,-12.79,-12.79,0,*56
1483520418.15,58819,9.5,71520.8,-9.03,-12.83,-12.83,0,*57
1483520419.44,58820,9.5,71506.3,-9.03,-12.53,-12.65,0,*58
1483520420.66,58821,9.5,71506.5,-9.05,-12.47,-12.39,0,*53
1483520421.9,58822,9.5,71496.0,-9.05,-12.53,-12.47,0,*5C
1483520423.19,58823,9.5,71500.3,-9.07,-12.75,-12.83,0,*53
1483520424.44,58824,9.5,71484.5,-9.07,-12.83,-12.89,0,*57
1483520425.71,58825,9.5,71478.3,-9.09,-12.57,-12.57,0,*52
1483520426.93,58826,9.5,71470.5,-9.09,-12.97,-12.89,0,*5E
1483520428.2,58827,9.5,71492.0,-9.07,-12.53,-12.39,0,*52
1483520429.47,58828,9.5,71490.0,-9.09,-12.75,-12.83,0,*56
1483520430.74,58829,9.5,71478.5,-9.09,-12.71,-12.57,0,*5A
1483520432.03,58830,9.5,71472.0,-9.11,-13.01,-13.01,0,*5F
1483520433.32,58831,9.5,71474.0,-9.11,-13.29,-13.33,0,*55
1483520434.53,58832,9.5,71476.0,-9.13,-13.19,-13.15,0,*53
1483520435.8,58833,9.5,71484.8,-9.13,-12.75,-12.61,0,*5B
1483520437.04,58834,9.5,71498.5,-9.13,-13.29,-13.15,0,*56
1483520438.26,58835,9.5,71502.0,-9.13,-13.19,-13.19,0,*58
1483520439.53,58836,9.5,71506.0,-9.17,-12.93,-12.79,0,*5B
1483520440.83,58837,9.5,71484.5,-9.17,-12.79,-12.79,0,*5E
1483520442.12,58838,9.5,71482.8,-9.17,-12.65,-12.53,0,*54
1483520443.36,58839,9.5,71506.8,-9.15,-12.93,-12.93,0,*52
1483520444.65,58840,9.5,71516.0,-9.17,-12.79,-12.65,0,*53
1483520445.89,58841,9.5,71512.8,-9.17,-12.97,-12.97,0,*5F
1483520447.17,58842,9.5,71528.5,-9.17,-12.83,-12.61,0,*50
1483520448.44,58843,9.5,71538.5,-9.17,-12.97,-12.79,0,*5D
1483520449.71,58844,9.5,71546.5,-9.17,-12.65,-12.47,0,*5A
1483520450.95,58845,9.5,71522.3,-9.19,-12.89,-12.65,0,*57
1483520452.21,58846,9.5,71512.3,-9.19,-12.79,-12.57,0,*5A
1483520453.48,58847,9.5,71494.8,-9.21,-12.65,-12.39,0,*55
1483520454.72,58848,9.5,71492.3,-9.19,-12.57,-12.29,0,*51
1483520455.96,58849,9.5,71492.5,-9.19,-12.39,-12.11,0,*53
1483520457.2,58850,9.5,71502.0,-9.19,-12.43,-12.11,0,*56
1483520458.44,58851,9.5,71494.3,-9.19,-12.15,-12.03,0,*57
1483520459.71,58852,9.5,71496.3,-9.19,-12.15,-12.11,0,*57
1483520460.98,58853,9.5,71498.3,-9.21,-12.57,-12.43,0,*5C
1483520462.24,58854,9.5,71492.0,-9.19,-12.65,-12.65,0,*55
1483520463.51,58855,9.5,71486.3,-9.19,-12.11,-11.89,0,*56
1483520464.77,58856,9.5,71528.8,-9.19,-11.89,-11.81,0,*5F
1483520466.06,58857,9.5,71510.3,-9.17,-11.85,-11.85,0,*58
1483520467.33,58858,9.5,71508.8,-9.19,-12.15,-12.11,0,*5D
1483520468.54,58859,9.5,71524.0,-9.19,-12.43,-12.29,0,*54
1483520469.76,58860,9.5,71508.5,-9.19,-12.29,-12.29,0,*52
1483520471.01,58861,9.5,71502.0,-9.19,-12.25,-12.15,0,*50
1483520472.3,58862,9.5,71496.0,-9.21,-12.15,-12.11,0,*5F
1483520473.54,58863,9.5,71508.8,-9.19,-12.15,-12.03,0,*56
1483520474.78,58864,9.5,71514.0,-9.19,-12.15,-12.03,0,*51
1483520476.05,58865,9.5,71498.0,-9.19,-12.15,-12.15,0,*57
1483520477.27,58866,9.5,71504.5,-9.19,-12.29,-12.25,0,*58
1483520478.54,58867,9.5,71514.5,-9.19,-12.57,-12.53,0,*51
1483520479.81,58868,9.5,71504.8,-9.19,-12.57,-12.53,0,*5E
1483520481.05,58869,9.5,71502.0,-9.19,-12.53,-12.39,0,*57
1483520482.29,58870,9.5,71492.3,-9.21,-12.29,-12.25,0,*54
1483520483.59,58871,9.5,71482.5,-9.21,-12.53,-12.57,0,*5D
1483520484.88,58872,9.5,71490.3,-9.21,-12.57,-12.57,0,*5A
1483520486.17,58873,9.5,71486.3,-9.21,-12.79,-12.83,0,*5E
1483520487.4,58874,9.5,71488.8,-9.23,-12.75,-12.93,0,*56
1483520488.64,58875,9.5,71502.5,-9.21,-13.11,-13.15,0,*59
1483520489.88,58876,9.5,71498.0,-9.27,-12.83,-12.89,0,*52
1483520491.15,58877,9.5,71508.8,-9.27,-12.75,-12.75,0,*59
1483520492.39,58878,9.5,71506.0,-9.27,-12.57,-12.43,0,*53
1483520493.64,58879,9.5,71498.3,-9.27,-12.89,-12.75,0,*54
1483520494.91,58880,9.5,71506.8,-9.27,-12.71,-12.61,0,*50
1483520496.17,58881,9.5,71544.5,-9.27,-12.57,-12.57,0,*50
1483520497.42,58882,9.5,71494.5,-9.31,-13.37,-13.19,0,*58
1483520498.69,58883,9.5,71496.0,-9.29,-12.65,-12.47,0,*5C
1483520499.96,58884,9.5,71494.0,-9.29,-12.35,-12.25,0,*5A
1483520501.23,58885,9.5,71500.8,-9.29,-12.35,-12.25,0,*5B
1483520502.52,58886,9.5,71502.3,-9.29,-11.97,-11.97,0,*59
1483520503.79,58887,9.5,71496.8,-9.29,-12.39,-12.35,0,*54
1483520505.06,58888,9.5,71500.8,-9.31,-12.75,-12.61,0,*5B
1483520506.33,58889,9.5,71500.3,-9.29,-12.35,-12.25,0,*57
1483520507.6,58890,9.5,71500.0,-9.31,-12.53,-12.53,0,*57
1483520508.84,58891,9.5,71484.5,-9.31,-12.47,-12.35,0,*53
1483520510.15,58892,9.5,71506.0,-9.29,-11.93,-11.89,0,*57
1483520511.39,58893,9.5,71502.8,-9.31,-12.25,-12.11,0,*53
1483520512.69,58894,9.5,71500.8,-9.29,-11.93,-11.89,0,*51
1483520513.98,58895,9.5,71502.5,-9.29,-11.81,-11.77,0,*52
1483520515.28,58896,9.5,71504.0,-9.29,-11.67,-11.63,0,*5C
1483520516.58,58897,9.5,71516.0,-9.29,-11.93,-11.89,0,*52
1483520517.85,58898,9.5,71518.3,-9.27,-12.35,-12.35,0,*58
1483520519.09,58899,9.5,71514.5,-9.27,-12.83,-12.93,0,*58
1483520520.34,58900,9.5,71522.0,-9.29,-12.93,-12.97,0,*52
1483520521.62,58901,9.5,71524.0,-9.29,-12.21,-12.11,0,*54
1483520522.89,58902,9.5,71526.8,-9.31,-11.89,-11.89,0,*5D
1483520524.1,58903,9.5,71518.3,-9.31,-12.47,-12.47,0,*5C
1483520525.39,58904,9.5,71510.0,-9.29,-11.89,-11.77,0,*53
1483520526.69,58905,9.5,71510.5,-9.29,-11.63,-11.67,0,*57
1483520527.99,58906,9.5,71502.3,-9.29,-11.93,-11.89,0,*5B
1483520529.28,58907,9.5,71504.0,-9.29,-11.89,-11.81,0,*59
1483520530.55,58908,9.5,71510.5,-9.27,-11.89,-11.89,0,*50
1483520531.83,58909,9.5,71534.3,-9.27,-11.93,-11.93,0,*51
1483520533.09,58910,9.5,71554.0,-9.27,-11.85,-11.85,0,*59
1483520534.36,58911,9.5,71562.5,-9.27,-11.77,-11.85,0,*55
1483520535.63,58912,9.5,71568.3,-9.27,-11.89,-11.89,0,*5B
1483520536.9,58913,9.5,71552.3,-9.27,-12.75,-12.75,0,*5A
1483520538.15,58914,9.5,71568.8,-9.27,-12.75,-12.89,0,*5E
1483520539.39,58915,9.5,71574.3,-9.29,-12.93,-13.07,0,*5E
1483520540.63,58916,9.5,71516.3,-9.29,-12.89,-13.07,0,*56
1483520541.86,58917,9.5,71512.3,-9.29,-13.11,-13.47,0,*53
1483520543.1,58918,9.5,71494.8,-9.31,-13.73,-13.79,0,*5C
1483520544.36,58919,9.5,71502.3,-9.31,-13.97,-13.79,0,*57
1483520545.62,58920,9.5,71496.3,-9.33,-13.29,-13.15,0,*50
1483520546.89,58921,9.5,71468.0,-9.35,-12.83,-12.79,0,*5D
1483520548.19,58922,9.5,71468.8,-9.33,-12.79,-12.71,0,*55
1483520549.46,58923,9.5,71504.5,-9.35,-12.71,-12.79,0,*52
1483520550.72,58924,9.5,71500.0,-9.33,-13.11,-13.29,0,*50
1483520551.96,58925,9.5,71496.3,-9.35,-13.01,-12.97,0,*52
1483520553.23,58926,9.5,71506.3,-9.35,-12.79,-12.65,0,*52
1483520554.47,58927,9.5,71538.0,-9.35,-13.37,-13.43,0,*5D
1483520555.7,58928,9.5,71512.3,-9.35,-13.65,-13.29,0,*59
1483520556.94,58929,9.5,71518.0,-9.35,-13.55,-13.37,0,*54
1483520558.24,58930,9.5,71516.3,-9.37,-13.61,-13.61,0,*5A
1483520559.5,58931,9.5,71530.3,-9.39,-13.61,-13.61,0,*55
1483520560.77,58932,9.5,71522.5,-9.37,-13.83,-13.69,0,*5C
1483520562.04,58933,9.5,71492.3,-9.37,-13.69,-13.61,0,*51
1483520563.34,58934,9.5,71490.8,-9.37,-13.61,-13.61,0,*5E
1483520564.57,58935,9.5,71496.3,-9.37,-13.55,-13.69,0,*50
1483520565.81,58936,9.5,71504.3,-9.39,-13.55,-13.87,0,*5D
1483520567.02,58937,9.5,71502.0,-9.39,-13.73,-14.19,0,*58
1483520568.3,58938,9.5,71528.0,-9.39,-14.01,-14.47,0,*5E
1483520569.54,58939,9.5,71508.0,-9.39,-14.15,-14.75,0,*5B
1483520570.78,58940,9.5,71512.5,-9.39,-14.33,-14.93,0,*59
1483520572.01,58941,9.5,71514.0,-9.39,-14.69,-14.93,0,*57
1483520573.25,58942,9.5,71514.8,-9.39,-14.79,-14.89,0,*5E
1483520574.51,58943,9.5,71518.3,-9.39,-14.93,-14.75,0,*58
1483520575.77,58944,9.5,71526.5,-9.41,-15.35,-14.61,0,*58
1483520577.03,58945,9.5,71522.0,-9.41,-14.93,-14.11,0,*53
1483520578.24,58946,9.5,71528.5,-9.43,-14.65,-13.93,0,*56
1483520579.48,58947,9.5,71536.0,-9.43,-14.83,-14.11,0,*52
1483520580.77,58948,9.5,71528.3,-9.41,-14.79,-14.05,0,*5F
1483520581.99,58949,9.5,71530.3,-9.43,-14.11,-13.65,0,*53
1483520583.23,58950,9.5,71530.0,-9.41,-13.73,-13.47,0,*5A
1483520584.47,58951,9.5,71524.5,-9.41,-13.73,-13.73,0,*5C
1483520585.76,58952,9.5,71514.3,-9.41,-13.79,-13.79,0,*5F
1483520587.06,58953,9.5,71546.3,-9.41,-13.97,-13.97,0,*5E
1483520588.28,58954,9.5,71538.0,-9.43,-14.11,-14.19,0,*53
1483520589.56,58955,9.5,71518.3,-9.41,-14.37,-14.47,0,*5F
1483520590.81,58956,9.5,71548.8,-9.43,-13.79,-13.79,0,*59
1483520592.08,58957,9.5,71526.0,-9.43,-13.87,-13.97,0,*59
1483520593.32,58958,9.5,71534.8,-9.45,-14.11,-14.11,0,*51
1483520594.56,58959,9.5,71526.8,-9.45,-14.37,-14.11,0,*54
1483520595.83,58960,9.5,71532.8,-9.45,-14.23,-13.83,0,*57
1483520597.07,58961,9.5,71532.5,-9.45,-14.11,-13.93,0,*56
1483520598.31,58962,9.5,71548.5,-9.43,-14.11,-13.87,0,*56
1483520599.56,58963,9.5,71526.8,-9.43,-14.19,-13.97,0,*5E
1483520600.78,58964,9.5,71528.8,-9.43,-14.11,-13.65,0,*5C
1483520602.03,58965,9.5,71512.8,-9.41,-13.73,-13.23,0,*5E
1483520603.29,58966,9.5,71524.5,-9.45,-13.79,-13.51,0,*56
1483520604.54,58967,9.5,71494.3,-9.49,-13.55,-13.37,0,*55
1483520605.79,58968,9.5,71486.0,-9.49,-13.69,-13.79,0,*5F
1483520607.09,58969,9.5,71502.0,-9.45,-13.97,-13.97,0,*53
1483520608.38,58970,9.5,71506.3,-9.45,-13.97,-13.83,0,*5E
1483520609.61,58971,9.5,71484.0,-9.49,-14.11,-13.65,0,*52
1483520610.88,58972,9.5,71496.3,-9.45,-14.11,-13.29,0,*55
1483520612.15,58973,9.5,71478.5,-9.45,-13.97,-13.11,0,*56
1483520613.39,58974,9.5,71480.8,-9.45,-13.65,-12.97,0,*53
1483520614.66,58975,9.5,71480.0,-9.45,-13.37,-12.93,0,*51
1483520615.92,58976,9.5,71522.0,-9.49,-13.07,-12.79,0,*59
1483520617.18,58977,9.5,71528.8,-9.45,-12.57,-12.43,0,*59
1483520618.44,58978,9.5,71522.0,-9.49,-12.43,-12.53,0,*5E
1483520619.71,58979,9.5,71520.0,-9.49,-12.57,-12.65,0,*5F
1483520621.0,58980,9.5,71518.0,-9.45,-12.65,-12.57,0,*55
1483520622.24,58981,9.5,71512.3,-9.45,-12.39,-12.29,0,*54
1483520623.51,58982,9.5,71514.0,-9.43,-12.65,-12.53,0,*55
1483520624.75,58983,9.5,71514.0,-9.43,-12.89,-12.61,0,*57
1483520625.99,58984,9.5,71522.5,-9.43,-13.11,-12.79,0,*59
1483520627.24,58985,9.5,71516.5,-9.43,-13.19,-12.75,0,*5C
1483520628.49,58986,9.5,71516.3,-9.43,-12.25,-11.93,0,*5A
1483520629.79,58987,9.5,71518.3,-9.41,-11.93,-11.51,0,*59
1483520631.09,58988,9.5,71530.3,-9.41,-11.63,-11.29,0,*56
1483520632.39,58989,9.5,71524.5,-9.41,-11.93,-11.67,0,*52
1483520633.68,58990,9.5,71528.5,-9.37,-11.89,-11.73,0,*55
1483520634.97,58991,9.5,71546.0,-9.37,-11.77,-11.73,0,*55
1483520636.26,58992,9.5,71544.3,-9.37,-11.73,-11.59,0,*5A
1483520637.56,58993,9.5,71548.0,-9.37,-11.89,-11.89,0,*53
1483520638.82,58994,9.5,71548.3,-9.35,-11.81,-11.67,0,*5E
1483520640.08,58995,9.5,71552.0,-9.35,-11.81,-11.73,0,*5A
1483520641.37,58996,9.5,71552.3,-9.33,-11.81,-11.81,0,*52
1483520642.66,58997,9.5,71552.0,-9.33,-11.97,-11.97,0,*53
1483520643.95,58998,9.5,71552.5,-9.33,-11.59,-11.59,0,*5C
1483520645.25,58999,9.5,71542.0,-9.29,-11.67,-11.55,0,*57
1483520646.51,59000,9.5,71542.5,-9.31,-11.63,-11.37,0,*56
1483520647.73,59001,9.5,71542.0,-9.27,-11.45,-11.23,0,*51
1483520648.95,59002,9.5,71546.3,-9.23,-11.45,-11.11,0,*57
1483520650.21,59003,9.5,71556.3,-9.27,-11.73,-11.33,0,*57
1483520651.42,59004,9.5,71562.0,-9.23,-11.45,-11.19,0,*59
1483520652.68,59005,9.5,71562.5,-9.23,-11.59,-11.33,0,*5D
1483520653.92,59006,9.5,71550.8,-9.19,-11.67,-11.45,0,*5B
1483520655.18,59007,9.5,71552.8,-9.19,-11.59,-11.33,0,*56
1483520656.43,59008,9.5,71552.5,-9.19,-11.33,-11.01,0,*54
1483520657.64,59009,9.5,71554.3,-9.19,-11.41,-11.19,0,*59
1483520658.89,59010,9.5,71548.5,-9.17,-11.11,-10.93,0,*59
1483520660.12,59011,9.5,71540.0,-9.15,-11.11,-10.93,0,*5A
1483520661.36,59012,9.5,71544.5,-9.15,-11.15,-11.11,0,*56
1483520662.6,59013,9.5,71538.0,-9.15,-11.23,-11.15,0,*56
1483520663.87,59014,9.5,71532.8,-9.13,-11.63,-11.63,0,*52
1483520665.13,59015,9.5,71542.3,-9.13,-11.81,-11.81,0,*53
1483520666.39,59016,9.5,71534.0,-9.13,-11.81,-11.81,0,*50
1483520667.66,59017,9.5,71556.0,-9.13,-11.89,-11.89,0,*51
1483520668.95,59018,9.5,71558.3,-9.11,-11.59,-11.59,0,*5C
1483520670.21,59019,9.5,71554.5,-9.13,-11.73,-11.63,0,*5E
1483520671.47,59020,9.5,71550.3,-9.13,-11.73,-11.59,0,*5D
1483520672.74,59021,9.5,71560.0,-9.13,-11.59,-11.51,0,*5C
1483520673.96,59022,9.5,71572.8,-9.13,-11.23,-11.11,0,*56
1483520675.22,59023,9.5,71582.5,-9.13,-11.63,-11.59,0,*5F
1483520676.51,59024,9.5,71582.0,-9.11,-11.59,-11.59,0,*53
1483520677.75,59025,9.5,71582.8,-9.13,-11.37,-11.45,0,*55
1483520679.02,59026,9.5,71580.8,-9.13,-11.63,-11.51,0,*52
1483520680.26,59027,9.5,71586.0,-9.13,-11.51,-11.19,0,*5E
1483520681.5,59028,9.5,71590.8,-9.09,-11.29,-10.89,0,*5D
1483520682.75,59029,9.5,71590.8,-9.09,-11.41,-11.07,0,*55
1483520684.02,59030,9.5,71590.3,-9.07,-11.33,-11.01,0,*50
1483520685.3,59031,9.5,71586.0,-9.07,-11.59,-11.29,0,*57
1483520686.57,59032,9.5,71582.5,-9.07,-11.67,-11.41,0,*57
1483520687.78,59033,9.5,71584.8,-9.05,-11.41,-11.11,0,*55
1483520689.05,59034,9.5,71588.5,-9.03,-11.41,-11.37,0,*50
1483520690.33,59035,9.5,71566.0,-9.03,-11.81,-11.81,0,*50
1483520691.62,59036,9.5,71562.0,-9.03,-12.07,-11.97,0,*59
1483520692.91,59037,9.5,71560.8,-9.03,-11.67,-11.55,0,*53
1483520694.2,59038,9.5,71570.3,-9.03,-12.11,-11.97,0,*50
1483520695.49,59039,9.5,71558.5,-9.03,-12.11,-11.93,0,*55
1483520696.76,59040,9.5,71562.3,-9.03,-12.21,-11.97,0,*5C
1483520698.02,59041,9.5,71554.0,-9.03,-12.53,-12.25,0,*52
1483520699.32,59042,9.5,71560.5,-9.03,-11.67,-11.63,0,*54
1483520700.62,59043,9.5,71560.5,-9.03,-11.93,-11.67,0,*5A
1483520701.86,59044,9.5,71560.3,-9.03,-11.15,-10.97,0,*5D
1483520703.11,59045,9.5,71542.8,-8.99,-11.37,-11.19,0,*59
1483520704.38,59046,9.5,71538.5,-8.97,-11.89,-11.63,0,*5C
1483520705.67,59047,9.5,71550.8,-8.99,-11.63,-11.59,0,*5E
1483520706.91,59048,9.5,71536.8,-8.97,-11.63,-11.45,0,*52
1483520708.14,59049,9.5,71528.8,-8.97,-11.51,-11.23,0,*52
1483520709.36,59050,9.5,71524.8,-8.97,-11.45,-11.19,0,*56
1483520710.62,59051,9.5,71524.0,-8.95,-11.45,-11.33,0,*5D
1483520711.87,59052,9.5,71538.8,-8.93,-11.55,-11.33,0,*59
1483520713.11,59053,9.5,71548.3,-8.95,-11.41,-11.19,0,*53
1483520714.32,59054,9.5,71546.0,-8.93,-11.15,-10.93,0,*50
1483520715.56,59055,9.5,71550.3,-8.93,-11.55,-11.45,0,*5F
1483520716.82,59056,9.5,71540.8,-8.91,-11.41,-11.37,0,*5E
1483520718.11,59057,9.5,71508.3,-8.91,-11.59,-11.55,0,*52
1483520719.38,59058,9.5,71522.5,-8.91,-11.81,-11.81,0,*51
1483520720.66,59059,9.5,71530.5,-8.91,-12.11,-12.07,0,*57
1483520721.95,59060,9.5,71526.0,-8.91,-11.93,-11.85,0,*5D
1483520723.23,59061,9.5,71492.5,-8.91,-11.85,-11.73,0,*52
1483520724.46,59062,9.5,71498.5,-8.91,-12.25,-12.25,0,*58
1483520725.74,59063,9.5,71518.3,-8.91,-11.73,-11.59,0,*51
1483520727.02,59064,9.5,71528.5,-8.91,-11.59,-11.51,0,*56
1483520728.3,59065,9.5,71520.5,-8.91,-11.73,-11.59,0,*57
1483520729.57,59066,9.5,71520.3,-8.89,-11.77,-11.63,0,*50
1483520730.84,59067,9.5,71534.3,-8.91,-11.73,-11.59,0,*55
1483520732.13,59068,9.5,71528.0,-8.91,-11.93,-11.81,0,*51
1483520733.4,59069,9.5,71520.8,-8.91,-11.85,-11.81,0,*57
1483520734.68,59070,9.5,71528.3,-8.91,-11.73,-11.55,0,*5F
1483520735.96,59071,9.5,71530.5,-8.91,-11.73,-11.59,0,*52
1483520737.24,59072,9.5,71542.0,-8.91,-11.73,-11.67,0,*5C
1483520738.52,59073,9.5,71546.5,-8.91,-11.85,-11.81,0,*5C
1483520739.73,59074,9.5,71544.8,-8.93,-12.39,-12.39,0,*5D
1483520740.94,59075,9.5,71546.3,-8.93,-12.43,-12.29,0,*50
1483520742.2,59076,9.5,71546.3,-8.93,-12.11,-12.11,0,*5F
1483520743.47,59077,9.5,71546.0,-8.93,-11.63,-11.55,0,*5B
1483520744.71,59078,9.5,71544.0,-8.93,-11.29,-11.15,0,*5E
1483520745.95,59079,9.5,71546.3,-8.93,-11.29,-11.19,0,*53
1483520747.18,59080,9.5,71546.8,-8.95,-11.19,-11.15,0,*5C
1483520748.44,59081,9.5,71548.0,-8.91,-11.51,-11.41,0,*54
1483520749.69,59082,9.5,71552.5,-8.91,-11.51,-11.41,0,*57
1483520750.95,59083,9.5,71552.5,-8.91,-11.37,-11.23,0,*52
1483520752.18,59084,9.5,71558.0,-8.89,-11.33,-11.19,0,*51
1483520753.44,59085,9.5,71560.5,-8.91,-11.37,-11.23,0,*54
1483520754.7,59086,9.5,71560.0,-8.89,-11.77,-11.67,0,*5A
1483520755.98,59087,9.5,71566.8,-8.91,-11.67,-11.67,0,*53
1483520757.22,59088,9.5,71562.8,-8.89,-12.03,-11.93,0,*5F
1483520758.48,59089,9.5,71562.0,-8.89,-11.81,-11.77,0,*5D
1483520759.71,59090,9.5,71560.0,-8.89,-11.51,-11.45,0,*59
1483520760.99,59091,9.5,71562.8,-8.91,-11.97,-11.97,0,*54
1483520762.23,59092,9.5,71558.5,-8.89,-11.55,-11.45,0,*5F
1483520763.49,59093,9.5,71556.3,-8.91,-11.29,-11.23,0,*5C
1483520764.72,59094,9.5,71558.5,-8.89,-11.33,-11.23,0,*59
1483520765.93,59095,9.5,71558.3,-8.89,-11.19,-11.15,0,*55
1483520767.17,59096,9.5,71558.3,-8.89,-11.11,-11.07,0,*5D
1483520768.43,59097,9.5,71560.3,-8.89,-11.33,-11.33,0,*5B
1483520769.69,59098,9.5,71560.0,-8.89,-11.93,-11.81,0,*57
1483520770.97,59099,9.5,71558.0,-8.91,-11.73,-11.73,0,*5C
1483520772.23,59100,9.5,71560.0,-8.89,-12.15,-12.15,0,*54
1483520773.49,59101,9.5,71562.3,-8.89,-11.89,-11.93,0,*5E
1483520774.77,59102,9.5,71564.3,-8.91,-11.55,-11.51,0,*5B
1483520776.05,59103,9.5,71562.0,-8.91,-11.59,-11.59,0,*5E
1483520777.32,59104,9.5,71568.3,-8.89,-12.07,-11.93,0,*5E
1483520778.61,59105,9.5,71566.0,-8.91,-12.07,-11.93,0,*56
1483520779.89,59106,9.5,71570.3,-8.91,-11.93,-11.97,0,*5F
1483520781.15,59107,9.5,71570.8,-8.89,-12.15,-12.15,0,*53
1483520782.41,59108,9.5,71570.5,-8.91,-12.39,-12.35,0,*59
1483520783.65,59109,9.5,71572.0,-8.93,-11.97,-12.03,0,*58
1483520784.89,59110,9.5,71570.8,-8.93,-12.11,-12.25,0,*59
1483520786.13,59111,9.5,71572.0,-8.95,-12.29,-12.29,0,*59
1483520787.41,59112,9.5,71568.3,-8.95,-11.85,-11.89,0,*56
1483520788.68,59113,9.5,71576.8,-8.93,-11.55,-11.55,0,*5D
1483520789.9,59114,9.5,71578.3,-8.93,-11.45,-11.45,0,*5A
1483520791.12,59115,9.5,71582.8,-8.93,-11.45,-11.41,0,*5F
1483520792.34,59116,9.5,71586.0,-8.93,-11.45,-11.41,0,*5C
1483520793.62,59117,9.5,71590.0,-8.95,-11.73,-11.73,0,*5F
1483520794.9,59118,9.5,71584.5,-8.95,-11.55,-11.59,0,*5C
1483520796.17,59119,9.5,71584.5,-8.93,-11.59,-11.59,0,*57
1483520797.45,59120,9.5,71584.3,-8.95,-11.73,-11.73,0,*5B
1483520798.69,59121,9.5,71584.3,-8.91,-12.21,-12.21,0,*5E
1483520799.98,59122,9.5,71584.0,-8.95,-12.53,-12.57,0,*5D
1483520801.26,59123,9.5,71580.3,-8.95,-12.61,-12.61,0,*58
1483520802.52,59124,9.5,71584.3,-8.93,-12.71,-12.75,0,*5D
1483520803.78,59125,9.5,71570.3,-8.97,-12.65,-12.65,0,*5C
1483520805.04,59126,9.5,71538.0,-8.97,-12.57,-12.61,0,*5A
1483520806.28,59127,9.5,71510.8,-8.99,-12.89,-12.89,0,*50
1483520807.51,59128,9.5,71532.0,-8.99,-13.43,-13.43,0,*5F
1483520808.77,59129,9.5,71548.0,-9.05,-13.33,-13.37,0,*5E
1483520810.0,59130,9.5,71558.0,-9.07,-13.43,-13.51,0,*53
1483520811.24,59131,9.5,71558.0,-9.09,-13.29,-13.15,0,*50
1483520812.52,59132,9.5,71564.8,-9.09,-12.75,-12.75,0,*5C
1483520813.79,59133,9.5,71572.0,-9.09,-12.57,-12.75,0,*5D
1483520815.04,59134,9.5,71576.8,-9.09,-12.75,-12.89,0,*59
1483520816.31,59135,9.5,71568.3,-9.09,-12.75,-12.83,0,*52
1483520817.53,59136,9.5,71556.5,-9.09,-12.25,-12.25,0,*58
1483520818.75,59137,9.5,71552.5,-9.09,-12.39,-12.29,0,*58
1483520819.96,59138,9.5,71544.3,-9.13,-12.89,-12.93,0,*56
1483520821.21,59139,9.5,71538.8,-9.11,-13.19,-13.19,0,*5E
1483520822.48,59140,9.5,71502.3,-9.11,-12.79,-12.89,0,*5F
1483520823.72,59141,9.5,71514.0,-9.13,-12.93,-13.01,0,*59
1483520824.96,59142,9.5,71520.5,-9.17,-12.97,-13.07,0,*5C
1483520826.19,59143,9.5,71526.8,-9.17,-13.07,-13.11,0,*52
1483520827.46,59144,9.5,71536.8,-9.17,-12.93,-12.83,0,*53
1483520828.73,59145,9.5,71516.0,-9.17,-12.83,-12.93,0,*52
1483520829.96,59146,9.5,71516.8,-9.17,-12.97,-13.07,0,*58
1483520831.24,59147,9.5,71518.8,-9.19,-12.71,-12.71,0,*5F
1483520832.53,59148,9.5,71512.5,-9.21,-12.79,-12.71,0,*53
1483520833.8,59149,9.5,71510.8,-9.19,-12.71,-12.65,0,*54
1483520835.09,59150,9.5,71528.8,-9.21,-12.79,-12.71,0,*5A
1483520836.38,59151,9.5,71554.3,-9.21,-12.79,-12.65,0,*5E
1483520837.67,59152,9.5,71560.0,-9.21,-12.57,-12.53,0,*54
1483520838.96,59153,9.5,71546.0,-9.21,-12.53,-12.53,0,*51
1483520840.2,59154,9.5,71538.5,-9.21,-12.39,-12.29,0,*57
1483520841.47,59155,9.5,71530.5,-9.21,-12.53,-12.39,0,*5B
1483520842.71,59156,9.5,71522.0,-9.21,-12.43,-12.39,0,*59
1483520843.95,59157,9.5,71520.8,-9.23,-12.83,-12.89,0,*5D
1483520845.2,59158,9.5,71530.5,-9.23,-12.61,-12.61,0,*58
1483520846.43,59159,9.5,71528.8,-9.23,-12.61,-12.47,0,*5D
1483520847.65,59160,9.5,71534.0,-9.23,-12.29,-12.29,0,*53
1483520848.91,59161,9.5,71536.3,-9.23,-12.15,-12.07,0,*51
1483520850.13,59162,9.5,71538.8,-9.23,-12.47,-12.29,0,*59
1483520851.39,59163,9.5,71540.5,-9.23,-12.57,-12.35,0,*54
1483520852.63,59164,9.5,71538.3,-9.23,-12.07,-12.03,0,*53
1483520853.85,59165,9.5,71532.8,-9.23,-12.21,-12.03,0,*56
1483520855.11,59166,9.5,71532.8,-9.23,-12.57,-12.57,0,*55
1483520856.34,59167,9.5,71526.5,-9.23,-12.57,-12.43,0,*51
1483520857.58,59168,9.5,71532.5,-9.23,-12.21,-12.15,0,*5C
1483520858.8,59169,9.5,71538.5,-9.23,-12.21,-12.21,0,*5A
1483520860.04,59170,9.5,71540.0,-9.23,-12.03,-11.89,0,*53
1483520861.3,59171,9.5,71550.5,-9.23,-11.85,-11.85,0,*53
1483520862.53,59172,9.5,71562.0,-9.23,-11.45,-11.37,0,*55
1483520863.75,59173,9.5,71558.3,-9.19,-11.19,-11.19,0,*58
1483520865.02,59174,9.5,71562.0,-9.19,-11.07,-11.07,0,*5F
1483520866.26,59175,9.5,71562.0,-9.17,-11.23,-11.23,0,*50
1483520867.52,59176,9.5,71566.0,-9.15,-11.23,-11.29,0,*5B
1483520868.76,59177,9.5,71566.8,-9.15,-11.23,-11.15,0,*55
1483520870.0,59178,9.5,71574.8,-9.15,-11.01,-10.85,0,*52
1483520871.27,59179,9.5,71574.0,-9.13,-11.59,-11.59,0,*58
1483520872.54,59180,9.5,71576.3,-9.13,-11.93,-11.89,0,*55
1483520873.83,59181,9.5,71574.3,-9.11,-11.89,-11.77,0,*5C
1483520875.1,59182,9.5,71572.0,-9.11,-12.03,-12.07,0,*5A
1483520876.37,59183,9.5,71568.8,-9.11,-12.21,-12.15,0,*58
1483520877.66,59184,9.5,71568.0,-9.11,-11.73,-11.63,0,*59
1483520878.93,59185,9.5,71570.5,-9.13,-11.63,-11.77,0,*5E
1483520880.22,59186,9.5,71570.5,-9.11,-11.59,-11.63,0,*53
1483520881.52,59187,9.5,71572.5,-9.11,-11.51,-11.63,0,*5A
1483520882.74,59188,9.5,71568.8,-9.09,-11.01,-11.15,0,*58
1483520883.97,59189,9.5,71566.8,-9.07,-11.19,-11.19,0,*52
1483520885.22,59190,9.5,71574.0,-9.09,-11.41,-11.55,0,*51
1483520886.5,59191,9.5,71570.5,-9.07,-12.11,-12.11,0,*5B
1483520887.79,59192,9.5,71568.0,-9.07,-11.97,-11.97,0,*58
1483520889.0,59193,9.5,71568.5,-9.05,-12.39,-12.21,0,*52
1483520890.27,59194,9.5,71576.0,-9.05,-12.35,-11.97,0,*57
1483520891.56,59195,9.5,71572.8,-9.03,-12.35,-12.07,0,*5A
1483520892.83,59196,9.5,71566.8,-9.03,-12.25,-12.07,0,*58
1483520894.12,59197,9.5,71562.5,-9.03,-12.35,-12.07,0,*58
1483520895.35,59198,9.5,71562.8,-9.03,-12.39,-12.25,0,*5B
1483520896.59,59199,9.5,71560.5,-9.03,-12.47,-12.25,0,*53
1483520897.86,59200,9.5,71560.5,-9.03,-12.39,-12.35,0,*58
1483520899.12,59201,9.5,71562.3,-9.03,-12.61,-12.47,0,*51
1483520900.35,59202,9.5,71558.5,-9.03,-12.39,-12.39,0,*56
1483520901.62,59203,9.5,71548.5,-9.03,-12.53,-12.39,0,*5B
1483520902.88,59204,9.5,71546.0,-9.03,-12.61,-12.47,0,*54
1483520904.12,59205,9.5,71540.0,-9.03,-12.93,-12.93,0,*51
1483520905.41,59206,9.5,71542.5,-9.03,-12.65,-12.53,0,*57
1483520906.68,59207,9.5,71542.3,-9.05,-12.79,-12.53,0,*5D
1483520907.96,59208,9.5,71542.0,-9.03,-12.71,-12.65,0,*59
1483520909.22,59209,9.5,71526.8,-9.03,-12.61,-12.47,0,*59
1483520910.44,59210,9.5,71534.3,-9.05,-13.07,-12.97,0,*5B
1483520911.68,59211,9.5,71518.0,-9.05,-12.53,-12.39,0,*5E
1483520912.95,59212,9.5,71528.0,-9.05,-12.71,-12.71,0,*51
1483520914.22,59213,9.5,71542.8,-9.07,-12.75,-12.89,0,*51
1483520915.5,59214,9.5,71546.0,-9.07,-12.65,-12.57,0,*54
1483520916.79,59215,9.5,71550.5,-9.07,-12.57,-12.71,0,*50
1483520918.03,59216,9.5,71562.0,-9.07,-12.39,-12.29,0,*56
1483520919.27,59217,9.5,71560.0,-9.09,-12.03,-11.97,0,*56
1483520920.55,59218,9.5,71560.8,-9.07,-11.85,-11.77,0,*54